• In Hungary
  • List of Countries
  • For 7 days
  • Water Temperature
  • Satellite Maps
  • Weather Map
  • News
  • Weather Widgets
  • user-avatar
    Login

    Hourly Weather Ancona

    Today, 19 June, Tuesday

    Time Temperature Precipitation Wind Pressure Humidity
    00:00 +20°C° 0 mm 3 mps 757 mmHg 77%
    01:00 +20°C° 0 mm 3 mps 758 mmHg 79%
    02:00 +20°C° 0 mm 3 mps 758 mmHg 79%
    03:00 +20°C° 0 mm 4 mps 758 mmHg 79%
    04:00 +20°C° 0 mm 4 mps 758 mmHg 80%
    05:00 +21°C° 0 mm 5 mps 758 mmHg 77%
    06:00 +23°C° 0 mm 5 mps 758 mmHg 75%
    07:00 +26°C° 0 mm 5 mps 759 mmHg 70%
    08:00 +27°C° 0 mm 5 mps 759 mmHg 66%
    09:00 +27°C° 0 mm 6 mps 759 mmHg 62%
    10:00 +28°C° 0 mm 6 mps 759 mmHg 58%
    11:00 +28°C° 0 mm 6 mps 759 mmHg 57%
    12:00 +28°C° 0 mm 6 mps 759 mmHg 55%
    13:00 +29°C° 0 mm 5 mps 759 mmHg 54%
    14:00 +29°C° 0 mm 5 mps 758 mmHg 54%
    15:00 +29°C° 0 mm 5 mps 758 mmHg 55%
    16:00 +28°C° 0 mm 5 mps 758 mmHg 55%
    17:00 +27°C° 0 mm 5 mps 758 mmHg 61%
    18:00 +26°C° 0 mm 5 mps 758 mmHg 67%
    19:00 +25°C° 0 mm 4 mps 758 mmHg 72%
    20:00 +23°C° 0 mm 4 mps 758 mmHg 73%
    21:00 +22°C° 0 mm 4 mps 759 mmHg 74%
    22:00 +21°C° 0 mm 4 mps 759 mmHg 74%
    23:00 +21°C° 0 mm 4 mps 759 mmHg 75%

    Tomorrow, 20 June, Wednesday

    Time Temperature Precipitation Wind Pressure Humidity
    00:00 +21°C° 0 mm 4 mps 759 mmHg 76%
    01:00 +21°C° 0 mm 5 mps 759 mmHg 77%
    02:00 +21°C° 0 mm 5 mps 759 mmHg 80%
    03:00 +21°C° 0 mm 5 mps 758 mmHg 82%
    04:00 +21°C° 0 mm 5 mps 758 mmHg 84%
    05:00 +22°C° 0 mm 5 mps 758 mmHg 81%
    06:00 +23°C° 0 mm 4 mps 758 mmHg 79%
    07:00 +26°C° 0 mm 4 mps 759 mmHg 76%
    08:00 +26°C° 0 mm 4 mps 759 mmHg 72%
    09:00 +27°C° 0 mm 3 mps 759 mmHg 68%
    10:00 +28°C° 0 mm 3 mps 759 mmHg 65%
    11:00 +29°C° 0.1 mm 3 mps 759 mmHg 64%
    12:00 +29°C° 0.1 mm 3 mps 759 mmHg 62%
    13:00 +29°C° 0.1 mm 2 mps 759 mmHg 61%
    14:00 +29°C° 0.1 mm 2 mps 758 mmHg 62%
    15:00 +29°C° 0.1 mm 2 mps 758 mmHg 63%
    16:00 +29°C° 0.1 mm 2 mps 758 mmHg 63%
    17:00 +28°C° 0.1 mm 1 mps 758 mmHg 68%
    18:00 +27°C° 0.1 mm 1 mps 758 mmHg 73%
    19:00 +26°C° 0.1 mm 1 mps 758 mmHg 78%
    20:00 +23°C° 0 mm 0 mps 758 mmHg 81%
    21:00 +22°C° 0 mm 0 mps 758 mmHg 84%
    22:00 +21°C° 0 mm 0 mps 759 mmHg 87%
    23:00 +22°C° 0 mm 1 mps 758 mmHg 87%

    Day after tomorrow, 21 June, Thursday

    Time Temperature Precipitation Wind Pressure Humidity
    00:00 +22°C° 0 mm 1 mps 758 mmHg 88%
    01:00 +22°C° 0 mm 1 mps 758 mmHg 88%
    02:00 +21°C° 0 mm 2 mps 758 mmHg 88%
    03:00 +21°C° 0 mm 2 mps 758 mmHg 89%
    04:00 +20°C° 0 mm 2 mps 758 mmHg 89%
    05:00 +23°C° 0 mm 2 mps 757 mmHg 84%
    06:00 +24°C° 0 mm 2 mps 757 mmHg 80%
    07:00 +25°C° 0 mm 2 mps 757 mmHg 75%
    08:00 +27°C° 0 mm 2 mps 757 mmHg 71%
    09:00 +28°C° 0 mm 1 mps 757 mmHg 66%
    10:00 +30°C° 0 mm 1 mps 757 mmHg 61%
    11:00 +30°C° 0.2 mm 1 mps 757 mmHg 60%
    12:00 +31°C° 0.2 mm 2 mps 757 mmHg 60%
    13:00 +31°C° 0.2 mm 2 mps 756 mmHg 59%
    14:00 +31°C° 0.4 mm 2 mps 756 mmHg 59%
    15:00 +31°C° 0.4 mm 2 mps 755 mmHg 60%
    16:00 +31°C° 0.4 mm 2 mps 755 mmHg 61%
    17:00 +30°C° 0.2 mm 3 mps 755 mmHg 66%
    18:00 +29°C° 0.2 mm 3 mps 755 mmHg 71%
    19:00 +28°C° 0.2 mm 3 mps 755 mmHg 76%
    20:00 +26°C° 0.1 mm 3 mps 755 mmHg 78%
    21:00 +25°C° 0.1 mm 3 mps 755 mmHg 80%
    22:00 +24°C° 0.1 mm 3 mps 755 mmHg 82%
    23:00 +24°C° 0 mm 3 mps 755 mmHg 83%

    22 June, Friday

    Time Temperature Precipitation Wind Pressure Humidity
    00:00 +22°C° 0 mm 3 mps 755 mmHg 83%
    01:00 +22°C° 0 mm 3 mps 755 mmHg 83%
    02:00 +22°C° 0.1 mm 3 mps 754 mmHg 83%
    03:00 +21°C° 0.1 mm 3 mps 754 mmHg 83%
    04:00 +21°C° 0.1 mm 3 mps 754 mmHg 84%
    05:00 +23°C° 0 mm 2 mps 754 mmHg 81%
    06:00 +24°C° 0 mm 2 mps 754 mmHg 77%
    07:00 +25°C° 0 mm 2 mps 754 mmHg 74%
    08:00 +27°C° 0 mm 2 mps 754 mmHg 68%
    09:00 +28°C° 0 mm 1 mps 754 mmHg 61%
    10:00 +30°C° 0 mm 1 mps 754 mmHg 55%
    11:00 +30°C° 0.2 mm 2 mps 754 mmHg 57%
    12:00 +30°C° 0.2 mm 2 mps 754 mmHg 58%
    13:00 +30°C° 0.2 mm 3 mps 754 mmHg 60%
    14:00 +29°C° 1.6 mm 3 mps 754 mmHg 65%
    15:00 +29°C° 1.6 mm 4 mps 754 mmHg 69%
    16:00 +28°C° 1.6 mm 4 mps 754 mmHg 73%
    17:00 +27°C° 1.8 mm 5 mps 754 mmHg 78%
    18:00 +24°C° 1.8 mm 6 mps 755 mmHg 83%
    19:00 +23°C° 1.8 mm 6 mps 755 mmHg 88%
    20:00 +22°C° 1.9 mm 6 mps 755 mmHg 90%
    21:00 +21°C° 1.9 mm 6 mps 756 mmHg 92%
    22:00 +20°C° 1.9 mm 6 mps 756 mmHg 94%
    23:00 +20°C° 1.4 mm 5 mps 756 mmHg 94%

    23 June, Saturday

    Time Temperature Precipitation Wind Pressure Humidity
    00:00 +20°C° 1.4 mm 4 mps 756 mmHg 94%
    01:00 +20°C° 1.4 mm 3 mps 756 mmHg 94%
    02:00 +19°C° 0.6 mm 3 mps 757 mmHg 94%
    03:00 +19°C° 0.6 mm 3 mps 757 mmHg 94%
    04:00 +19°C° 0.6 mm 3 mps 757 mmHg 94%
    05:00 +19°C° 0.1 mm 3 mps 757 mmHg 93%
    06:00 +19°C° 0.1 mm 3 mps 757 mmHg 91%
    07:00 +20°C° 0.1 mm 3 mps 757 mmHg 90%
    08:00 +20°C° 0 mm 3 mps 758 mmHg 82%
    09:00 +21°C° 0 mm 3 mps 758 mmHg 74%
    10:00 +22°C° 0 mm 3 mps 758 mmHg 67%
    11:00 +24°C° 0 mm 3 mps 758 mmHg 62%
    12:00 +25°C° 0 mm 3 mps 758 mmHg 58%
    13:00 +25°C° 0 mm 3 mps 758 mmHg 54%
    14:00 +25°C° 0 mm 3 mps 757 mmHg 54%
    15:00 +25°C° 0 mm 3 mps 757 mmHg 55%
    16:00 +25°C° 0 mm 3 mps 757 mmHg 55%
    17:00 +24°C° 0 mm 2 mps 757 mmHg 59%
    18:00 +23°C° 0 mm 2 mps 757 mmHg 64%
    19:00 +21°C° 0 mm 2 mps 757 mmHg 68%
    20:00 +20°C° 0 mm 2 mps 757 mmHg 69%
    21:00 +19°C° 0 mm 2 mps 757 mmHg 69%
    22:00 +17°C° 0 mm 2 mps 758 mmHg 70%
    23:00 +17°C° 0 mm 2 mps 758 mmHg 70%

    24 June, Sunday

    Time Temperature Precipitation Wind Pressure Humidity
    00:00 +17°C° 0 mm 2 mps 757 mmHg 70%
    01:00 +16°C° 0 mm 2 mps 757 mmHg 70%
    02:00 +16°C° 0 mm 2 mps 757 mmHg 69%
    03:00 +16°C° 0 mm 2 mps 757 mmHg 67%
    04:00 +16°C° 0 mm 2 mps 757 mmHg 65%
    05:00 +18°C° 0 mm 2 mps 757 mmHg 67%
    06:00 +19°C° 0 mm 2 mps 757 mmHg 68%
    07:00 +20°C° 0 mm 2 mps 758 mmHg 69%
    08:00 +21°C° 0 mm 2 mps 758 mmHg 65%
    09:00 +24°C° 0 mm 3 mps 758 mmHg 60%
    10:00 +25°C° 0 mm 3 mps 758 mmHg 56%
    11:00 +26°C° 0 mm 3 mps 758 mmHg 54%
    12:00 +26°C° 0 mm 3 mps 757 mmHg 51%
    13:00 +26°C° 0 mm 3 mps 757 mmHg 49%
    14:00 +26°C° 0 mm 3 mps 757 mmHg 50%
    15:00 +26°C° 0 mm 3 mps 757 mmHg 51%
    16:00 +26°C° 0 mm 3 mps 757 mmHg 51%
    17:00 +25°C° 0 mm 3 mps 757 mmHg 56%
    18:00 +23°C° 0 mm 2 mps 757 mmHg 61%
    19:00 +21°C° 0 mm 2 mps 757 mmHg 66%
    20:00 +20°C° 0 mm 2 mps 757 mmHg 67%
    21:00 +19°C° 0 mm 2 mps 758 mmHg 67%
    22:00 +17°C° 0 mm 3 mps 758 mmHg 68%
    23:00 +17°C° 0 mm 3 mps 758 mmHg 66%
    Show more